Flag for U.S.A. Weather past 2 weeks in Jackson, Mississippi, U.S.A.

Now
81 °F

Scattered clouds.


Feels Like: 85 °F
Forecast: 70 / 82 °F
Wind: 9 mph from South

Location: Hawkins Field

Current Time: May 25, 2015 at 1:01:34 PM

Latest Report: May 25, 2015 at 11:53 AM


Visibility: 10 mi

Pressure: 30.07 "Hg

Humidity: 74%

Dew point: 72 °F

Location of JacksonLocation

Historic Weather in Jackson — Graph

°F

Jackson temperature yesterday

Maximum temperature yesterday: 86 °F (at 1:53 PM)
Minimum temperature yesterday: 69 °F (at 5:53 AM)
Average temperature yesterday: 77 °F

Past Weeks' High & Low Weather Summary

 TemperatureHumidityPressure
High88 °F (May 10, 1:53 PM)97% (May 18, 2:53 AM)30.24 "Hg (May 18, 2:53 AM)
Low52 °F (May 22, 5:53 AM)43% (May 10, 1:53 PM)29.91 "Hg (May 20, 6:53 PM)
Average73 °F76%30.09 "Hg
* Reported May 10 11:53 AM — May 25 11:53 AM, Jackson, Weather by CustomWeather, © 2015

Note: Actual official high and low records may vary slightly from our data, if they occured in-between our weather recording intervals... More about our weather records

Advertising

Jackson weather history for previous 24 hours

 ConditionsComfort  
Time TempWeatherWind HumidityBarometerVisibility
11:53 AM
Mon, May 25
81 °FScattered clouds.9 mph74%30.07 "Hg10 mi
10:53 AM79 °FScattered clouds.10 mph79%30.06 "Hg10 mi
9:53 AM76 °FMostly cloudy.8 mph88%30.07 "Hg10 mi
8:53 AM73 °FLow clouds.9 mph94%30.07 "Hg10 mi
7:53 AM72 °FMostly cloudy.9 mph93%30.06 "Hg10 mi
7:02 AM71 °FPartly sunny.7 mph93%30.06 "Hg10 mi
6:53 AM70 °FPassing clouds.7 mph93%30.03 "Hg10 mi
5:53 AM69 °FPartly cloudy.3 mph93%30.03 "Hg10 mi
4:53 AM70 °FMostly cloudy.5 mph93%30.01 "Hg10 mi
3:53 AM69 °FPassing clouds.6 mph93%30.00 "Hg10 mi
2:53 AM69 °FLight rain. Overcast.5 mph93%30.02 "Hg10 mi
1:53 AM69 °FMostly cloudy.5 mph93%30.03 "Hg10 mi
12:53 AM69 °FLight rain. Partly cloudy.8 mph93%30.04 "Hg10 mi
12:01 AM70 °FHeavy rain. Fog.14 mph90%30.09 "Hg1 mi
10:53 PM
Sun, May 24
71 °FPassing clouds.No wind90%30.03 "Hg10 mi
9:53 PM71 °FPartly cloudy.7 mph87%30.02 "Hg10 mi
8:53 PM69 °FLight rain. Partly sunny.7 mph93%30.01 "Hg10 mi
7:53 PM78 °FBroken clouds.10 mph79%30.00 "Hg10 mi
6:53 PM79 °FBroken clouds.8 mph77%29.98 "Hg10 mi
5:53 PM80 °FThundershowers. Sunny.17 mph74%29.97 "Hg10 mi
4:53 PM79 °FSunny.14 mph82%29.97 "Hg10 mi
3:53 PM86 °FThunderstorms. Scattered clouds.16 mph59%29.97 "Hg10 mi
3:02 PM86 °FThundershowers. Passing clouds.16 mph57%30.01 "Hg10 mi
2:53 PM86 °FThunderstorms. Scattered clouds.18 mph57%29.98 "Hg10 mi
1:53 PM86 °FPassing clouds.15 mph57%30.01 "Hg10 mi
Weather by CustomWeather, © 2015

See weather overviewHow to use our weather pages